Location: Béaulencourt
(50.0796°N, 2.8795°E)
Time: 00:09:21
(UTC+00:00)

SJ 16-02 - Pass Details

Date: 20 January 2026
Orbit: 583 x 594 km, 75.0° (Epoch: 9 February)

Event Time Altitude Azimuth Distance (km) Brightness Sun altitude
Rises 05:21:16 0° 172° (S) 2,793 4.9 -21.3°
Reaches altitude 10° 05:23:41 10° 160° (SSE) 1,899 4.2 -20.9°
Maximum altitude 05:27:18 28° 101° (E) 1,104 3.4 -20.4°
Drops below altitude 10° 05:30:57 10° 42° (NE) 1,915 4.3 -19.8°
Sets 05:33:24 0° 31° (NNE) 2,822 5.0 -19.4°
